Location: ????????
(55.0559°N, 39.1270°E)
Time: 13:37:18
(UTC+00:00)

USA 234 - Visible Passes

Search period start: 14 February 2026 00:00
Search period end: 24 February 2026 00:00
Orbit: 1102 x 1106 km, 123.0° (Epoch: 4 January)

Date Brightness Start Highest point End Pass type
(mag) Time Alt. Az. Time Alt. Az. Time Alt. Az.
14 Feb 5.2 16:24:04 10° S 16:29:20 26° SW 16:34:39 10° WNW visible
15 Feb 4.5 15:39:54 10° SSE 15:46:02 42° SW 15:52:13 10° WNW visible
15 Feb 5.7 17:27:17 10° SSW 17:30:24 14° WSW 17:33:31 10° W visible
16 Feb 3.8 14:56:26 10° SE 15:02:56 63° SSW 15:09:27 10° WNW visible
16 Feb 5.1 16:41:35 10° S 16:46:51 26° SW 16:52:09 10° WNW visible
17 Feb 4.4 15:57:24 10° SSE 16:03:32 42° SW 16:09:43 10° WNW visible
17 Feb 5.6 17:44:49 10° SSW 17:47:53 14° WSW 17:50:59 10° W visible
18 Feb 3.8 15:13:56 10° SE 15:20:26 63° SSW 15:26:57 10° WNW visible
18 Feb 5.1 16:59:05 10° S 17:04:21 25° SW 17:09:38 10° WNW visible
19 Feb 4.4 16:14:54 10° SSE 16:21:02 42° SW 16:27:12 10° WNW visible
19 Feb 5.6 18:02:22 10° SSW 18:05:24 14° WSW 18:08:27 10° W visible
20 Feb 3.8 15:31:26 10° SE 15:37:56 62° SSW 15:44:27 10° WNW visible
20 Feb 5.0 17:16:36 10° S 17:21:51 25° SW 17:27:08 10° WNW visible
21 Feb 4.3 16:32:24 10° SSE 16:38:32 41° SW 16:44:42 10° WNW visible
21 Feb 5.5 18:19:54 10° SSW 18:22:54 13° WSW 18:25:55 10° W visible
22 Feb 3.7 15:48:56 10° SE 15:55:25 62° SSW 16:01:56 10° WNW visible
22 Feb 4.9 17:34:07 10° S 17:39:21 25° SW 17:44:37 10° WNW visible
23 Feb 4.3 16:49:55 10° SSE 16:56:02 41° SW 17:02:11 10° WNW visible
23 Feb 5.5 18:37:26 10° SSW 18:40:24 13° WSW 18:43:23 10° W visible
